Flag for Australia Weather past 2 weeks in The Settlement, Christmas Island, Australia

Now
75 °F

Mostly cloudy.


Feels Like: 74 °F
Forecast: 76 / 80 °F
Wind: 13 mph from Northeast

Location: Christmas Island Aerodrome

Current Time: Oct 22, 2014 at 2:34:24 AM

Latest Report: Oct 22, 2014 at 2:00 AM


Visibility: N/A

Pressure: 29.98 "Hg

Humidity: 94%

Dew point: 73 °F

Location of The SettlementLocation

Historic Weather in The Settlement — Graph

°F

The Settlement temperature yesterday

Maximum temperature yesterday: 79 °F (at 10:00 AM)
Minimum temperature yesterday: 75 °F (at 12:00 AM)
Average temperature yesterday: 77 °F

Past Weeks' High & Low Weather Summary

 TemperatureHumidityPressure
High81 °F (Oct 7, 12:00 PM)100% (Oct 14, 10:00 AM)30.04 "Hg (Oct 14, 10:00 AM)
Low73 °F (Oct 7, 1:00 AM)65% (Oct 10, 9:00 AM)29.89 "Hg (Oct 7, 4:00 PM)
Average76 °F83%29.96 "Hg
* Reported Oct 7 1:00 AM — Oct 22 1:00 AM, The Settlement, Weather by CustomWeather, © 2014

Note: Actual official high and low records may vary slightly from our data, if they occured in-between our weather recording intervals... More about our weather records

Advertising

The Settlement weather history for previous 24 hours

 ConditionsComfort  
Time TempWeatherWind HumidityBarometerVisibility
1:00 AM
Oct 22
75 °FMostly cloudy.14 mph94%29.98 "HgN/A
12:00 AM75 °FMostly cloudy.13 mph94%29.98 "HgN/A
11:00 PM
Oct 21
75 °FMostly cloudy.15 mph94%30.01 "HgN/A
10:00 PM75 °FPassing clouds.15 mph89%30.01 "HgN/A
9:00 PM75 °FMostly cloudy.13 mph94%30.01 "HgN/A
8:00 PM75 °FMostly cloudy.15 mph94%30.01 "HgN/A
7:00 PM77 °FMostly cloudy.13 mph89%29.98 "HgN/A
6:00 PM77 °FLow clouds.15 mph89%29.98 "HgN/A
5:00 PM77 °FMostly cloudy.15 mph89%29.95 "HgN/A
4:00 PM77 °FLow clouds.15 mph89%29.92 "HgN/A
3:00 PM77 °FMostly cloudy.16 mph89%29.95 "HgN/A
2:00 PM79 °FLow clouds.15 mph84%29.95 "HgN/A
1:00 PM79 °FLow clouds.16 mph84%29.95 "HgN/A
12:00 PM79 °FPartly sunny.17 mph84%29.98 "HgN/A
11:00 AM79 °FLow clouds.17 mph84%30.01 "HgN/A
10:00 AM79 °FLow clouds.17 mph84%30.04 "HgN/A
9:00 AM77 °FLow clouds.15 mph89%30.04 "HgN/A
8:00 AM77 °FLow clouds.15 mph89%30.04 "HgN/A
7:00 AM77 °FLow clouds.13 mph89%30.04 "HgN/A
6:00 AM75 °FMostly cloudy.14 mph94%30.01 "HgN/A
5:00 AM75 °FMostly cloudy.13 mph94%29.98 "HgN/A
4:00 AM75 °FMostly cloudy.15 mph94%29.98 "Hg6 mi
3:00 AM75 °FMostly cloudy.14 mph94%29.98 "Hg5 mi
2:05 AM75 °FMostly cloudy.13 mph94%29.98 "Hg4 mi
Weather by CustomWeather, © 2014

See weather overviewHow to use our weather pages